Regional Weather Roundup
Issued by NWS

Home | Current Version | Previous Version | Graphics & Text | Print | Product List | Glossary On
Versions: 1 2 3 4 5 6 7 8 9 10 11 12 13 14 15 16 17 18 19 20 21 22 23 24 25 26 27
000
ASUS45 KCYS 240610
RWRWY

WYOMING REGIONAL WEATHER ROUNDUP
NATIONAL WEATHER SERVICE CHEYENNE WY
1200 AM MDT THU MAY 24 2018

NOTE:  "FAIR" INDICATES FEW OR NO CLOUDS BELOW 12,000 FEET
WITH NO SIGNIFICANT WEATHER AND/OR OBSTRUCTIONS TO VISIBILITY.

WYZ001-240700-
YELLOWSTONE NATIONAL PARK

CITY           SKY/WX    TMP DP  RH WIND       PRES   REMARKS
LK YELLOWSTONE   N/A     37  35  92 CALM      30.16S
6HR MIN TEMP:  36; 6HR MAX TEMP:  39; 6HR PCP:  0.03;

W YELLOWSTONE  NOT AVBL

$$
WYZ002>013-054>058-071-098>099-240700-
NORTHERN WYOMING

CITY           SKY/WX    TMP DP  RH WIND       PRES   REMARKS
JACKSON        CLOUDY    46  44  93 SE5       30.11F
CODY           MOCLDY    57  41  55 VRB7G16   29.97
GREYBULL       CLOUDY    59  54  83 SE3       29.92R
6HR MIN TEMP:  58; 6HR MAX TEMP:  65; 6HR PCP:  0.01;

WORLAND        MOCLDY    55  52  89 CALM      29.93R
6HR MIN TEMP:  52; 6HR MAX TEMP:  70;

SHERIDAN       MOCLDY    57  53  86 W5        29.90R
6HR MIN TEMP:  56; 6HR MAX TEMP:  71;

BUFFALO        FAIR      59  47  64 NW12      29.94R
6HR MIN TEMP:  57; 6HR MAX TEMP:  66; 6HR PCP: TRACE;

GILLETTE       FAIR      55  47  74 S21       29.89F
6HR MIN TEMP:  53; 6HR MAX TEMP:  61;

NEWCASTLE      FAIR      55  43  62 SE8       29.97R

$$
WYZ014>020-022>026-101>103-240700-
CENTRAL WYOMING

CITY           SKY/WX    TMP DP  RH WIND       PRES   REMARKS
BIG PINEY      FAIR      47  43  86 NE8       30.14F
6HR MIN TEMP:  47; 6HR MAX TEMP:  62;

PINEDALE       MOCLDY    45  41  87 W5        30.16S
DUBOIS         FAIR      45  37  76 NW15      30.09R
LANDER         FAIR      53  43  68 N8        30.00R
6HR MIN TEMP:  53; 6HR MAX TEMP:  64; 6HR PCP: TRACE;

RIVERTON       FAIR      54  43  66 NW13      30.01R
6HR MIN TEMP:  53; 6HR MAX TEMP:  63;

CASPER         FAIR      47  44  90 W8        30.00F
6HR MIN TEMP:  47; 6HR MAX TEMP:  68;

DOUGLAS        FAIR      49  48  97 N3        30.01S
6HR MIN TEMP:  49; 6HR MAX TEMP:  67;


$$
WYZ021-027>030-104>119-240700-
SOUTHERN WYOMING

CITY           SKY/WX    TMP DP  RH WIND       PRES   REMARKS
EVANSTON       FAIR      48  39  71 SW5       30.15F
6HR MIN TEMP:  48; 6HR MAX TEMP:  61;

KEMMERER       FAIR      45  36  70 W7        30.16S
FORT BRIDGER   FAIR      51  38  61 SW8       30.18S
ROCK SPRINGS   FAIR      46  37  71 SW9       30.14S
6HR MIN TEMP:  46; 6HR MAX TEMP:  61; 6HR PCP: TRACE;

DIXON          FAIR      44  34  69 NE3       30.18R
RAWLINS        FAIR      50  36  58 W8        30.14R
6HR MIN TEMP:  50; 6HR MAX TEMP:  68;

SARATOGA       FAIR      43  34  70 S3        30.16S
LARAMIE        FAIR      42  37  82 S7        30.16R
6HR MIN TEMP:  42; 6HR MAX TEMP:  67;

CHEYENNE       FAIR      51  43  74 W5        30.10R
6HR MIN TEMP:  51; 6HR MAX TEMP:  72;

TORRINGTON     FAIR      52  51  97 CALM      29.99R
6HR MIN TEMP:  52; 6HR MAX TEMP:  73; 6HR PCP:  0.04;

PINE BLUFFS    FAIR      46  45  93 NW7       30.05S

$$




USA.gov is the U.S. government's official web portal to all federal, state and local government web resources and services.